[[{"header":{"parameterUnit":"m.s-1","parameterCategory":1,"la1":30.2991,"la2":30.254,"lo1":-89.0895,"lo2":-89.0444,"dy":0.0017,"dx":0.0017,"nx":28,"ny":28,"refTime":"2025-11-30T09:00:00:Z","depth":0,"parameterNumber":2,"parameterNumberName":"U-component_of_WINDS"},"data":[0,0,0,0,0,0,0,0,0,0,0,0,0,0,0,0,0,0,0,0,0,0,0,0,0,0,0,0,0,0,0,0,0,0,0,0,0,0,0,0,0,0,0,0,0,0,0,0,0,0,0,0,0,0,0,0,0,0,-3.4668,-3.4668,0,-3.4637,-3.4636,-3.4636,-3.4542,-3.454,-3.4538,-3.4536,-3.4505,-3.4507,-3.4508,0,0,0,0,0,0,0,0,0,0,0,0,0,-3.4648,-3.4649,-3.4668,-3.4668,-3.4667,-3.4637,-3.4636,-3.4636,-3.4543,-3.454,-3.4538,-3.4535,-3.4505,-3.4506,-3.4508,0,0,0,0,0,0,0,0,0,0,0,0,0,-3.4641,-3.4649,-3.4668,-3.4617,-3.4612,-3.4637,-3.4636,-3.4636,-3.4543,-3.454,-3.4537,-3.4534,-3.4505,-3.4506,-3.4508,-3.458,0,0,-3.4513,-3.4514,0,0,0,0,0,0,0,0,-3.4642,-3.4642,-3.4625,-3.4621,-3.4615,-3.459,-3.4618,-3.4617,-3.4544,-3.4569,-3.4536,-3.4532,-3.4536,-3.4535,-3.4536,-3.4579,-3.4577,-3.4513,-3.4514,-3.4515,-3.4515,0,0,0,0,0,0,0,-3.4642,-3.4643,-3.4656,-3.4625,-3.4619,-3.4596,-3.4591,-3.4617,-3.4571,-3.4567,-3.456,-3.4558,-3.4533,-3.4535,-3.4535,-3.4577,-3.4513,-3.4515,-3.4516,-3.4516,-3.4675,-3.4679,0,0,0,0,0,0,-3.465,-3.4644,-3.4657,-3.4655,-3.4621,-3.4599,-3.4594,-3.4601,-3.457,-3.4562,-3.456,-3.4553,-3.4533,-3.4533,-3.4533,-3.4614,-3.4515,-3.4516,-3.4517,-3.4672,-3.4676,-3.468,0,0,0,0,0,0,-3.465,-3.4652,-3.4658,-3.4647,-3.4646,-3.4602,-3.4612,-3.4602,-3.4604,-3.4565,-3.4556,-3.457,-3.4531,-3.4531,-3.4569,-3.4612,-3.4517,-3.4519,-3.4668,-3.4673,-3.4678,-3.4778,0,0,0,0,0,0,-3.465,-3.4652,-3.4679,-3.4649,-3.4647,-3.4694,-3.4614,-3.4604,-3.4607,-3.4597,-3.4572,-3.4565,-3.4528,-3.4567,-3.457,-3.4613,-3.452,-3.4664,-3.4671,-3.4676,-3.4771,-3.4786,-3.4799,0,0,0,0,0,-3.4649,-3.4709,-3.4681,-3.4683,-3.468,-3.4697,-3.4696,-3.4652,-3.4611,-3.4637,-3.4612,-3.4566,-3.4607,-3.4571,-3.4575,-3.4618,-3.4661,-3.4669,-3.4676,-3.4765,-3.4783,-3.4799,0,0,0,0,0,0,-3.4747,-3.4705,-3.4673,-3.4725,-3.4715,-3.4681,-3.4713,-3.4673,-3.4676,-3.4667,-3.4613,-3.4608,-3.4653,-3.4639,-3.4601,-3.4686,-3.4626,-3.4635,-3.4693,-3.471,-3.4724,-3.4726,-3.4521,0,0,0,0,0,-3.4775,-3.4792,-3.4754,-3.4803,-3.48,-3.4758,-3.4764,-3.473,-3.4718,-3.4714,-3.4691,-3.4682,-3.4692,-3.47,-3.4708,-3.4769,-3.4761,-3.48,-3.4814,-3.4826,-3.4833,-3.4863,-3.488,-3.4704,-3.4704,-3.4703,0,0,-3.4832,-3.4811,-3.4825,-3.4823,-3.4811,-3.483,-3.4755,-3.4778,-3.4791,-3.4718,-3.4751,-3.4735,-3.472,-3.477,-3.479,-3.476,-3.488,-3.4835,-3.4845,-3.4846,-3.4872,-3.4889,-3.4904,-3.4709,-3.4708,-3.4707,0,0,-3.4946,-3.4932,-3.4971,-3.4961,-3.4944,-3.4915,-3.4925,-3.4897,-3.4883,-3.4915,-3.486,-3.4875,-3.4895,-3.4886,-3.4885,-3.4995,-3.4952,-3.4999,-3.5072,-3.5101,-3.5115,-3.5127,-3.5165,-3.518,-3.5007,-3.5007,-3.5007,0,-3.502,-3.5045,-3.4997,-3.5023,-3.5023,-3.4956,-3.4995,-3.4988,-3.4975,-3.4977,-3.4943,-3.4965,-3.4951,-3.4996,-3.5023,-3.5024,-3.5033,-3.5001,-3.5117,-3.5129,-3.5139,-3.5175,-3.519,-3.5013,-3.5012,-3.5011,-3.5011,0,-3.5136,-3.5154,-3.5188,-3.5176,-3.518,-3.5213,-3.5169,-3.5179,-3.5146,-3.5121,-3.5155,-3.5135,-3.5137,-3.5146,-3.5114,-3.5187,-3.5168,-3.5127,-3.5066,-3.5162,-3.5195,-3.5208,-3.5021,-3.5019,-3.5017,-3.5016,0,0,-3.5311,-3.5271,-3.5284,-3.5277,-3.5253,-3.5267,-3.5296,-3.5297,-3.5306,-3.53,-3.5323,-3.5341,-3.5301,-3.53,-3.5266,-3.5292,-3.5379,-3.5247,-3.5246,-3.5271,-3.5457,-3.5488,-3.5505,-3.5351,-3.5353,-3.5355,-3.5458,0,-3.5418,-3.5465,-3.5422,-3.5478,-3.5494,-3.543,-3.5456,-3.5444,-3.5421,-3.5432,-3.5407,-3.542,-3.5368,-3.5366,-3.5389,-3.5364,-3.5416,-3.5356,-3.5371,-3.5373,-3.5376,-3.5522,-3.5555,-3.5652,-3.547,-3.5473,-3.5474,0,-3.5549,-3.5547,-3.5604,-3.5575,-3.558,-3.5604,-3.5601,-3.5612,-3.5597,-3.5579,-3.5576,-3.5535,-3.5562,-3.5503,-3.5539,-3.5499,-3.5503,-3.5492,-3.5494,-3.5494,-3.5429,-3.5524,-3.5683,-3.5697,-3.5494,-3.5492,-3.5491,0,-3.5669,-3.5681,-3.5716,-3.5713,-3.568,-3.5698,-3.5686,-3.5668,-3.5671,-3.5668,-3.567,-3.5671,-3.5672,-3.5673,-3.5633,-3.5595,-3.5674,-3.5612,-3.5659,-3.566,-3.5678,-3.5677,-3.5839,-3.5683,-3.5682,-3.5682,-3.5682,0,-3.5792,-3.583,-3.577,-3.5792,-3.5831,-3.5781,-3.5822,-3.5803,-3.5787,-3.5804,-3.575,-3.5767,-3.5714,-3.5725,-3.5694,-3.5728,-3.5729,-3.5715,-3.5706,-3.5719,-3.5721,-3.572,-3.5712,-3.5686,-3.5685,-3.5684,-3.5684,0,-3.5934,-3.5895,-3.5929,-3.5895,-3.5888,-3.5918,-3.5889,-3.5908,-3.5881,-3.5903,-3.5906,-3.5864,-3.5875,-3.5835,-3.584,-3.5819,-3.5868,-3.5849,-3.5873,-3.5867,-3.5915,-3.5911,-3.6081,-3.6101,-3.5934,-3.5935,-3.5937,0,-3.6014,-3.6041,-3.601,-3.6017,-3.6007,-3.6019,-3.6021,-3.5973,-3.5978,-3.5963,-3.5983,-3.5989,-3.5991,-3.6011,-3.5981,-3.5984,-3.5963,-3.6023,-3.5964,-3.5975,-3.5963,-3.5961,-3.5963,-3.6035,-3.6037,-3.6039,-3.604,0,-3.6162,-3.6141,-3.6146,-3.6144,-3.6148,-3.6145,-3.6138,-3.6147,-3.6095,-3.6103,-3.6113,-3.6114,-3.6118,-3.6124,-3.612,-3.6108,-3.6066,-3.6059,-3.607,-3.6083,-3.6096,-3.6088,-3.5906,-3.6055,-3.6054,-3.6053,-3.6052,-3.6051,-3.6274,-3.6295,-3.6275,-3.6283,-3.6272,-3.6266,-3.6282,-3.6257,-3.6264,-3.6262,-3.6233,-3.6248,-3.6232,-3.6222,-3.6214,-3.6225,-3.6197,-3.6213,-3.6217,-3.6221,-3.6229,-3.6095,-3.6224,-3.6224,-3.6223,-3.6223,-3.6222,0,-3.6417,-3.6402,-3.6409,-3.64,-3.6406,-3.6365,-3.6355,-3.6362,-3.6376,-3.6364,-3.6366,-3.6377,-3.6382,-3.6353,-3.6355,-3.6369,-3.635,-3.6371,-3.6369,-3.6366,-3.6254,-3.6244,-3.6386,-3.6386,-3.6386,-3.6386,-3.6386,-3.6386,-3.6493,-3.6524,-3.6501,-3.6527,-3.6511,-3.6525,-3.6522,-3.6517,-3.6506,-3.652,-3.6524,-3.6505,-3.6486,-3.6485,-3.6488,-3.6479,-3.6482,-3.651,-3.6495,-3.639,-3.6374,-3.6359,-3.6349,-3.6511,-3.6511,-3.6605,-3.6606,-3.6607]},{"header":{"parameterUnit":"m.s-1","parameterCategory":1,"la1":30.2991,"la2":30.254,"lo1":-89.0895,"lo2":-89.0444,"dy":0.0017,"dx":0.0017,"nx":28,"ny":28,"refTime":"2025-11-30T09:00:00:Z","depth":0,"parameterNumber":3,"parameterNumberName":"V-component_of_WINDS"},"data":[0,0,0,0,0,0,0,0,0,0,0,0,0,0,0,0,0,0,0,0,0,0,0,0,0,0,0,0,0,0,0,0,0,0,0,0,0,0,0,0,0,0,0,0,0,0,0,0,0,0,0,0,0,0,0,0,0,0,-2.9106,-2.9107,0,-2.9189,-2.919,-2.9191,-2.9196,-2.9195,-2.9194,-2.9193,-2.9274,-2.9277,-2.928,0,0,0,0,0,0,0,0,0,0,0,0,0,-2.895,-2.8953,-2.9106,-2.9107,-2.9108,-2.9189,-2.919,-2.9191,-2.9196,-2.9195,-2.9193,-2.9192,-2.9273,-2.9276,-2.928,0,0,0,0,0,0,0,0,0,0,0,0,0,-2.9024,-2.8954,-2.9106,-2.912,-2.9122,-2.9189,-2.919,-2.9191,-2.9196,-2.9195,-2.9193,-2.9192,-2.9272,-2.9276,-2.928,-2.9337,0,0,-2.9294,-2.9296,0,0,0,0,0,0,0,0,-2.9019,-2.9029,-2.9117,-2.9119,-2.9122,-2.9181,-2.9165,-2.924,-2.9196,-2.9168,-2.9193,-2.9191,-2.9244,-2.925,-2.9269,-2.934,-2.9344,-2.9295,-2.9297,-2.9299,-2.9301,0,0,0,0,0,0,0,-2.9014,-2.9026,-2.9139,-2.9118,-2.9121,-2.9122,-2.9131,-2.9179,-2.9212,-2.917,-2.9171,-2.9181,-2.9245,-2.9264,-2.9271,-2.9345,-2.9295,-2.9299,-2.9301,-2.9303,-2.9471,-2.9472,0,0,0,0,0,0,-2.9007,-2.9021,-2.9136,-2.9141,-2.9066,-2.9126,-2.9136,-2.9163,-2.9212,-2.9218,-2.9182,-2.9181,-2.9257,-2.9265,-2.9274,-2.9346,-2.9299,-2.9304,-2.9306,-2.9469,-2.9471,-2.9473,0,0,0,0,0,0,-2.9003,-2.9017,-2.9133,-2.9082,-2.9096,-2.913,-2.9161,-2.9165,-2.9185,-2.9221,-2.9227,-2.9196,-2.9257,-2.9267,-2.9322,-2.9349,-2.9306,-2.931,-2.9467,-2.947,-2.9472,-2.9489,0,0,0,0,0,0,-2.8999,-2.9016,-2.9038,-2.9082,-2.9099,-2.918,-2.9162,-2.9168,-2.9194,-2.9193,-2.9236,-2.9242,-2.9256,-2.9315,-2.9327,-2.9354,-2.9313,-2.9465,-2.9468,-2.9471,-2.9486,-2.9491,-2.9496,0,0,0,0,0,-2.8993,-2.9037,-2.9039,-2.9053,-2.9128,-2.9182,-2.9192,-2.9209,-2.9196,-2.9218,-2.9242,-2.924,-2.9343,-2.9321,-2.9334,-2.9363,-2.9463,-2.9467,-2.9471,-2.9483,-2.949,-2.9496,0,0,0,0,0,0,-2.8993,-2.9043,-2.9046,-2.9105,-2.914,-2.9183,-2.9211,-2.9215,-2.9252,-2.925,-2.9268,-2.9278,-2.9333,-2.9353,-2.9327,-2.9422,-2.9402,-2.9408,-2.9407,-2.9414,-2.9419,-2.9414,-2.9317,0,0,0,0,0,-2.9,-2.9041,-2.9082,-2.9131,-2.9148,-2.9177,-2.9201,-2.9212,-2.9248,-2.9262,-2.9289,-2.9322,-2.9363,-2.9389,-2.9428,-2.9488,-2.9499,-2.9515,-2.952,-2.9524,-2.953,-2.9567,-2.9575,-2.9486,-2.9486,-2.9486,0,0,-2.9015,-2.9047,-2.9072,-2.9132,-2.916,-2.9202,-2.9189,-2.9233,-2.9265,-2.9268,-2.9323,-2.9344,-2.9383,-2.9442,-2.9469,-2.946,-2.9557,-2.9529,-2.9532,-2.9536,-2.9572,-2.958,-2.9587,-2.9488,-2.9488,-2.9488,0,0,-2.9064,-2.9092,-2.9137,-2.9166,-2.9209,-2.9229,-2.924,-2.9283,-2.9298,-2.9353,-2.9358,-2.9395,-2.9463,-2.9492,-2.9516,-2.9579,-2.958,-2.959,-2.9618,-2.9653,-2.9661,-2.9667,-2.9692,-2.9701,-2.9596,-2.9596,-2.9596,0,-2.9076,-2.9141,-2.9159,-2.9205,-2.9233,-2.924,-2.9286,-2.9313,-2.9366,-2.9384,-2.9374,-2.9463,-2.9489,-2.9556,-2.9572,-2.959,-2.9604,-2.9586,-2.9658,-2.9665,-2.9671,-2.9696,-2.9705,-2.9597,-2.9597,-2.9597,-2.9597,0,-2.9156,-2.92,-2.9232,-2.9286,-2.9316,-2.9362,-2.9388,-2.9416,-2.9425,-2.9445,-2.9503,-2.9535,-2.9583,-2.9599,-2.9606,-2.9668,-2.9662,-2.9654,-2.9635,-2.9681,-2.9704,-2.9713,-2.9599,-2.9599,-2.9598,-2.9598,0,0,-2.9206,-2.9272,-2.9284,-2.931,-2.9359,-2.9394,-2.944,-2.9489,-2.9514,-2.955,-2.9591,-2.965,-2.9645,-2.9672,-2.9682,-2.9713,-2.9765,-2.9703,-2.9704,-2.9716,-2.9839,-2.9847,-2.9857,-2.9766,-2.9767,-2.9769,-2.9837,0,-2.9263,-2.9348,-2.9367,-2.944,-2.9483,-2.9492,-2.9532,-2.9567,-2.9588,-2.9627,-2.9649,-2.9692,-2.968,-2.9697,-2.9728,-2.9752,-2.9791,-2.9747,-2.9805,-2.9807,-2.9798,-2.9869,-2.9876,-2.9939,-2.9846,-2.9847,-2.9849,0,-2.934,-2.9382,-2.946,-2.9507,-2.9526,-2.9562,-2.961,-2.9646,-2.9687,-2.9699,-2.9731,-2.974,-2.9789,-2.9767,-2.9836,-2.9806,-2.9831,-2.9847,-2.9849,-2.9857,-2.9832,-2.9881,-2.9959,-2.9969,-2.9863,-2.9861,-2.986,0,-2.9373,-2.9448,-2.9506,-2.9527,-2.9582,-2.9609,-2.9633,-2.9671,-2.97,-2.9741,-2.976,-2.9805,-2.9831,-2.9865,-2.9886,-2.9867,-2.9955,-2.9934,-2.9969,-2.9968,-2.9988,-2.9987,-3.0074,-3.0,-2.9999,-2.9999,-2.9999,0,-2.9435,-2.9484,-2.9522,-2.9557,-2.9612,-2.9634,-2.9687,-2.9711,-2.9746,-2.9787,-2.9795,-2.9832,-2.9857,-2.9898,-2.9914,-2.9971,-2.9981,-2.9994,-2.9998,-2.9995,-2.9994,-3.0013,-3.001,-3.0002,-3.0001,-3.0001,-3.0,0,-2.9482,-2.9509,-2.9573,-2.9621,-2.9635,-2.9673,-2.9714,-2.975,-2.9771,-2.9822,-2.9836,-2.9869,-2.9919,-2.9943,-3.0002,-3.0014,-3.0079,-3.0079,-3.0067,-3.0069,-3.0104,-3.0101,-3.0208,-3.0224,-3.0136,-3.0137,-3.0138,0,-2.9521,-2.9559,-2.9613,-2.9642,-2.9667,-2.9713,-2.9743,-2.9766,-2.9798,-2.9848,-2.9878,-2.9928,-2.9969,-3.0048,-3.0077,-3.0124,-3.0127,-3.0161,-3.0134,-3.0131,-3.0132,-3.013,-3.0136,-3.0167,-3.0168,-3.0168,-3.0169,0,-2.9589,-2.9602,-2.9646,-2.9697,-2.9733,-2.9773,-2.9812,-2.9835,-2.9865,-2.9899,-2.9951,-2.9984,-3.0048,-3.0098,-3.0148,-3.0172,-3.0177,-3.0177,-3.0188,-3.0187,-3.0179,-3.0187,-3.0083,-3.0175,-3.0174,-3.0174,-3.0173,-3.0173,-2.9636,-2.9671,-2.9716,-2.9766,-2.9798,-2.9836,-2.9872,-2.99,-2.9944,-2.9999,-3.0009,-3.0065,-3.0107,-3.0174,-3.02,-3.0245,-3.0237,-3.0252,-3.0257,-3.0261,-3.0265,-3.017,-3.0253,-3.0253,-3.0253,-3.0253,-3.0253,0,-2.9707,-2.9737,-2.9783,-2.9839,-2.9879,-2.9881,-2.9925,-2.9958,-3.0008,-3.0047,-3.0089,-3.015,-3.0199,-3.0234,-3.0284,-3.0313,-3.0317,-3.0326,-3.0326,-3.0332,-3.0267,-3.0254,-3.0323,-3.0323,-3.0323,-3.0323,-3.0323,-3.0323,-2.9749,-2.9811,-2.9829,-2.9907,-2.9936,-2.9993,-3.0018,-3.0053,-3.0085,-3.0154,-3.0196,-3.0219,-3.0256,-3.031,-3.0357,-3.0366,-3.0385,-3.0395,-3.0404,-3.0343,-3.0336,-3.0329,-3.0317,-3.0399,-3.0399,-3.0466,-3.0467,-3.0467]}]]